[[{"header":{"parameterUnit":"m.s-1","parameterCategory":2,"la1":30.2992,"la2":30.254,"lo1":-89.0895,"lo2":-89.0443,"dy":0.0025,"dx":0.0025,"nx":19,"ny":19,"refTime":"2026-04-02T03:00:00:Z","depth":"0","parameterNumber":2,"parameterNumberName":"U-component_of_CURRENTS"},"data":[0,0,0,0.0963,0.0962,0.0866,0.0865,0.0774,0.0773,0,0,0,0,0,0,0,0,0,0,0,0.0998,0.0998,0.0963,0.0961,0.0866,0.0865,0.0774,0.0773,0,0,0,0,0,0,0,0,0,0,0,0.0998,0.0998,0.0997,0.0961,0.0866,0.0865,0.0774,0.0836,0,0,0,0,0,0,0,0,0,0,0.0924,0.0949,0.0998,0.0997,0.0961,0.0866,0.0865,0.0839,0.0832,0.083,0,0.0821,0,0.08,0.0769,0.0769,0,0,0,0.095,0.0954,0.0937,0.0997,0.096,0.0866,0.0906,0.0835,0.0828,0.0821,0.0819,0.0815,0.0798,0.0768,0.0768,0.0788,0.0788,0,0,0.0956,0.097,0.0942,0.0933,0.0944,0.0909,0.0903,0.083,0.0822,0.0819,0.0813,0.0797,0.0768,0.0768,0.0787,0.0788,0,0,0,0.0978,0.0974,0.0957,0.0937,0.092,0.0907,0.09,0.0825,0.0822,0.0812,0.0796,0.0768,0.0767,0.0786,0.0787,0.0875,0,0,0,0.0981,0.0988,0.096,0.0966,0.0921,0.0865,0.0897,0.0827,0.0818,0.0796,0.0768,0.0766,0.0785,0.0787,0.0871,0.0913,0,0,0,0.1001,0.099,0.0983,0.0967,0.0931,0.0866,0.0857,0.0824,0.0809,0.0769,0.0766,0.0785,0.0787,0.0868,0.0906,0.1026,0,0,0,0.1012,0.0979,0.0983,0.0937,0.0932,0.089,0.0857,0.0819,0.0788,0.0767,0.0786,0.0787,0.0866,0.0903,0.1021,0.1137,0.117,0,0,0.0972,0.0974,0.0945,0.0947,0.0909,0.0902,0.0894,0.0844,0.0818,0.0808,0.0807,0.0873,0.0906,0.1025,0.1234,0.1264,0,0,0,0.0933,0.0922,0.0907,0.0888,0.087,0.0905,0.0862,0.0879,0.089,0.0809,0.0882,0.0901,0.0974,0.1032,0.1057,0.1112,0.0795,0.0795,0.0795,0.0906,0.0895,0.087,0.0873,0.0874,0.0906,0.0946,0.0971,0.0922,0.0967,0.098,0.1138,0.1201,0.122,0.1276,0.0985,0.0986,0.0986,0.0986,0.0863,0.0845,0.0877,0.0854,0.0917,0.0939,0.1032,0.1052,0.1157,0.1079,0.1147,0.1129,0.1253,0.1302,0.0992,0.0991,0.099,0.099,0.0989,0.0836,0.0832,0.0834,0.0856,0.0926,0.0989,0.1131,0.1188,0.1239,0.1311,0.1404,0.1403,0.1443,0.1358,0.1359,0.136,0.1361,0.1361,0.1362,0.0807,0.0814,0.083,0.0867,0.0915,0.103,0.1199,0.1317,0.1487,0.1524,0.1525,0.1521,0.1252,0.1235,0.1373,0.1371,0.1369,0.1368,0.1368,0.0756,0.0783,0.0809,0.0849,0.0975,0.1102,0.1269,0.1567,0.1709,0.1827,0.1855,0.1654,0.1648,0.1628,0.162,0.185,0.185,0.185,0.185,0.0743,0.075,0.0813,0.0885,0.1005,0.114,0.1401,0.1652,0.194,0.2062,0.2084,0.2016,0.1994,0.2001,0.1973,0.1969,0.2282,0.2282,0.2283,0.0737,0.0763,0.0807,0.0879,0.101,0.1187,0.1397,0.165,0.2084,0.2299,0.2147,0.2129,0.2017,0.1977,0.1969,0.1924,0.1907,0,0]},{"header":{"parameterUnit":"m.s-1","parameterCategory":2,"la1":30.2992,"la2":30.254,"lo1":-89.0895,"lo2":-89.0443,"dy":0.0025,"dx":0.0025,"nx":19,"ny":19,"refTime":"2026-04-02T03:00:00:Z","depth":"0","parameterNumber":3,"parameterNumberName":"V-component_of_CURRENTS"},"data":[0,0,0,-0.0228,-0.023,-0.0268,-0.0268,-0.0226,-0.0226,0,0,0,0,0,0,0,0,0,0,0,-0.0206,-0.0206,-0.0228,-0.023,-0.0268,-0.0268,-0.0227,-0.0226,0,0,0,0,0,0,0,0,0,0,0,-0.0206,-0.0206,-0.0206,-0.023,-0.0268,-0.0268,-0.0227,-0.0217,0,0,0,0,0,0,0,0,0,0,-0.019,-0.018,-0.0206,-0.0206,-0.023,-0.0268,-0.0268,-0.0217,-0.0217,-0.0188,0,-0.02,0,-0.022,-0.0222,-0.0222,0,0,0,-0.0216,-0.018,-0.0201,-0.0207,-0.0231,-0.0268,-0.0247,-0.0218,-0.0218,-0.0187,-0.02,-0.0199,-0.022,-0.0222,-0.0222,-0.0159,-0.0158,0,0,-0.0214,-0.0199,-0.0202,-0.0202,-0.0247,-0.0246,-0.0248,-0.0219,-0.0213,-0.0199,-0.0199,-0.0219,-0.0222,-0.0221,-0.0159,-0.0159,0,0,0,-0.0217,-0.0197,-0.022,-0.0202,-0.0221,-0.0247,-0.025,-0.0214,-0.0225,-0.0198,-0.0218,-0.0221,-0.0221,-0.0159,-0.0159,-0.0116,0,0,0,-0.0215,-0.02,-0.0219,-0.0208,-0.0223,-0.023,-0.0245,-0.0227,-0.0225,-0.0219,-0.0221,-0.022,-0.016,-0.0159,-0.0117,-0.0073,0,0,0,-0.0203,-0.0199,-0.0208,-0.0208,-0.0234,-0.0231,-0.024,-0.0227,-0.0237,-0.0222,-0.022,-0.016,-0.0159,-0.0119,-0.0077,-0.0039,0,0,0,-0.0179,-0.0178,-0.0207,-0.0199,-0.0233,-0.0221,-0.0241,-0.0231,-0.0217,-0.0221,-0.0159,-0.0159,-0.012,-0.0079,-0.0041,0.0023,0.0039,0,0,-0.0162,-0.0175,-0.0167,-0.0195,-0.017,-0.0215,-0.0174,-0.0176,-0.0195,-0.0161,-0.016,-0.0117,-0.0077,-0.0039,0.0063,0.0078,0,0,0,-0.0151,-0.0146,-0.0142,-0.0137,-0.0142,-0.0123,-0.0145,-0.0151,-0.0142,-0.0188,-0.0115,-0.009,-0.0068,-0.0035,-0.0023,-0.0096,-0.0156,-0.0156,-0.0156,-0.0094,-0.0098,-0.0071,-0.0073,-0.0056,-0.0059,-0.0047,-0.0059,-0.0092,-0.0091,-0.0055,0.0008,0.0043,0.0053,-0.0024,-0.0068,-0.0068,-0.0068,-0.0068,-0.0044,-0.0027,-0.0014,0.0004,0.0024,0.0052,0.006,0.003,0.0041,-0.0007,0.0011,0.001,0.007,-0.0018,-0.0065,-0.0066,-0.0066,-0.0066,-0.0066,-0.0004,0.0002,0.0009,0.0055,0.0104,0.012,0.0186,0.0155,0.0107,0.0118,0.0144,0.0144,0.0068,0.0117,0.0117,0.0117,0.0118,0.0118,0.0118,0.0031,0.004,0.0075,0.011,0.0151,0.022,0.0253,0.0273,0.0265,0.0221,0.0221,0.0089,0.0065,0.0058,0.0124,0.0123,0.0122,0.0122,0.0121,0.0074,0.0075,0.0131,0.017,0.0273,0.0386,0.0403,0.0464,0.0445,0.0456,0.025,0.0272,0.027,0.026,0.0259,0.0373,0.0373,0.0373,0.0373,0.0108,0.0111,0.0198,0.0278,0.0387,0.0473,0.0636,0.0666,0.0517,0.0415,0.031,0.0259,0.0252,0.0244,0.0234,0.023,0.0334,0.0333,0.0333,0.0151,0.0169,0.0242,0.0313,0.044,0.0588,0.0765,0.0869,0.0592,0.0319,0.0195,0.0196,0.0103,0.0098,0.0068,0.0061,0.0047,0,0]}],[{"header":{"parameterUnit":"m.s-1","parameterCategory":2,"la1":30.2992,"la2":30.254,"lo1":-89.0895,"lo2":-89.0443,"dy":0.0025,"dx":0.0025,"nx":19,"ny":19,"refTime":"2026-04-02T03:00:00:Z","depth":"2","parameterNumber":2,"parameterNumberName":"U-component_of_CURRENTS"},"data":[0,0,0,0.1141,0.114,0.1084,0.1084,0.1015,0.1015,0,0,0,0,0,0,0,0,0,0,0,0.1162,0.1162,0.1141,0.114,0.1084,0.1084,0.1015,0.1015,0,0,0,0,0,0,0,0,0,0,0,0.1162,0.1162,0.1162,0.1139,0.1084,0.1084,0.1015,0.1055,0,0,0,0,0,0,0,0,0,0,0.1109,0.1124,0.1162,0.1162,0.1139,0.1084,0.1083,0.1057,0.1053,0.1043,0,0.1038,0,0.1026,0.1011,0.101,0,0,0,0.1134,0.1128,0.1119,0.1162,0.1139,0.1084,0.1107,0.1055,0.105,0.1037,0.1037,0.1035,0.1025,0.101,0.101,0.1027,0.1027,0,0,0.1137,0.1143,0.1123,0.1116,0.1129,0.1109,0.1106,0.1052,0.1045,0.1037,0.1033,0.1024,0.101,0.1009,0.1026,0.1027,0,0,0,0.115,0.1146,0.1138,0.1119,0.1109,0.1108,0.1104,0.1047,0.1047,0.1032,0.1023,0.1009,0.1009,0.1026,0.1027,0.11,0,0,0,0.1151,0.1153,0.114,0.1142,0.1111,0.1076,0.1101,0.1051,0.1044,0.1023,0.1009,0.1008,0.1025,0.1026,0.1097,0.1137,0,0,0,0.1164,0.1154,0.1151,0.1142,0.1121,0.1076,0.1072,0.1049,0.1039,0.101,0.1008,0.1024,0.1026,0.1094,0.1131,0.1245,0,0,0,0.1167,0.1148,0.1151,0.1125,0.1122,0.1101,0.1072,0.1048,0.1027,0.1009,0.1025,0.1026,0.1093,0.1128,0.1241,0.1306,0.1333,0,0,0.1142,0.1145,0.1129,0.1131,0.112,0.1108,0.1115,0.1075,0.105,0.104,0.104,0.1098,0.1131,0.1244,0.1393,0.1418,0,0,0,0.1121,0.1118,0.1112,0.1107,0.1099,0.113,0.1096,0.1106,0.1115,0.1046,0.1108,0.1127,0.1197,0.1226,0.1245,0.1034,0.1033,0.1033,0.1033,0.1101,0.1103,0.1095,0.1109,0.1113,0.1142,0.1179,0.1195,0.1147,0.1181,0.1194,0.134,0.1371,0.1386,0.1198,0.1198,0.1199,0.1199,0.1199,0.108,0.1071,0.1104,0.1097,0.1148,0.1168,0.1248,0.1263,0.1361,0.1282,0.1346,0.131,0.1413,0.1205,0.1204,0.1203,0.1203,0.1202,0.1202,0.1058,0.1057,0.1064,0.109,0.1145,0.1197,0.1324,0.1381,0.1426,0.1499,0.1557,0.1555,0.1408,0.1539,0.154,0.154,0.1541,0.1542,0.1542,0.1024,0.1038,0.1052,0.1088,0.1124,0.1221,0.1378,0.1494,0.1638,0.1661,0.1661,0.1456,0.1445,0.1429,0.1553,0.1551,0.1549,0.1548,0.1548,0.0983,0.1003,0.1028,0.1061,0.1167,0.1272,0.1429,0.1685,0.1824,0.1917,0.1774,0.1765,0.176,0.1743,0.1735,0.1931,0.1931,0.1931,0.1931,0.0966,0.0974,0.1026,0.1087,0.119,0.1302,0.1501,0.1678,0.185,0.1883,0.1884,0.1786,0.1773,0.1761,0.1743,0.1731,0.1927,0.1926,0.1926,0.0961,0.0982,0.1018,0.1081,0.119,0.1336,0.1457,0.1546,0.1743,0.1915,0.1771,0.1953,0.1806,0.1787,0.1761,0.1736,0.1713,0,0]},{"header":{"parameterUnit":"m.s-1","parameterCategory":2,"la1":30.2992,"la2":30.254,"lo1":-89.0895,"lo2":-89.0443,"dy":0.0025,"dx":0.0025,"nx":19,"ny":19,"refTime":"2026-04-02T03:00:00:Z","depth":"2","parameterNumber":3,"parameterNumberName":"V-component_of_CURRENTS"},"data":[0,0,0,-0.0274,-0.0276,-0.0342,-0.0342,-0.0319,-0.0319,0,0,0,0,0,0,0,0,0,0,0,-0.0242,-0.0243,-0.0274,-0.0276,-0.0342,-0.0342,-0.0319,-0.0319,0,0,0,0,0,0,0,0,0,0,0,-0.0242,-0.0243,-0.0243,-0.0276,-0.0342,-0.0342,-0.032,-0.0294,0,0,0,0,0,0,0,0,0,0,-0.0242,-0.0226,-0.0243,-0.0243,-0.0277,-0.0342,-0.0342,-0.0294,-0.0295,-0.0263,0,-0.0278,0,-0.0304,-0.0316,-0.0316,0,0,0,-0.0266,-0.0225,-0.0252,-0.0243,-0.0278,-0.0342,-0.0309,-0.0295,-0.0297,-0.0264,-0.0278,-0.0278,-0.0304,-0.0316,-0.0316,-0.0256,-0.0256,0,0,-0.0262,-0.0241,-0.0251,-0.0253,-0.0299,-0.0307,-0.0311,-0.0298,-0.0293,-0.0278,-0.0278,-0.0303,-0.0315,-0.0315,-0.0257,-0.0256,0,0,0,-0.0259,-0.0239,-0.0268,-0.0253,-0.0277,-0.0309,-0.0314,-0.0293,-0.0306,-0.0279,-0.0303,-0.0315,-0.0315,-0.0257,-0.0256,-0.021,0,0,0,-0.0256,-0.0238,-0.0267,-0.0253,-0.0279,-0.03,-0.0309,-0.0307,-0.0307,-0.0303,-0.0315,-0.0314,-0.0257,-0.0257,-0.0212,-0.0168,0,0,0,-0.0239,-0.0236,-0.0248,-0.0252,-0.0288,-0.0301,-0.0313,-0.0308,-0.0322,-0.0316,-0.0314,-0.0258,-0.0257,-0.0213,-0.0172,-0.0128,0,0,0,-0.0209,-0.0221,-0.0247,-0.0256,-0.0288,-0.0295,-0.0314,-0.0318,-0.0312,-0.0315,-0.0257,-0.0257,-0.0214,-0.0175,-0.0131,-0.0079,-0.0063,0,0,-0.0207,-0.022,-0.0224,-0.0249,-0.0248,-0.0285,-0.0259,-0.0268,-0.0287,-0.0253,-0.0253,-0.0211,-0.0173,-0.0129,-0.0036,-0.0021,0,0,0,-0.0212,-0.0214,-0.0217,-0.0224,-0.0237,-0.0217,-0.0243,-0.0244,-0.0234,-0.0284,-0.0209,-0.0185,-0.016,-0.0134,-0.0122,-0.0253,-0.0253,-0.0253,-0.0253,-0.0165,-0.018,-0.0167,-0.0178,-0.0166,-0.0169,-0.0153,-0.0156,-0.0188,-0.0181,-0.0147,-0.0077,-0.0051,-0.0041,-0.0159,-0.0158,-0.0158,-0.0158,-0.0158,-0.0137,-0.0127,-0.0116,-0.0112,-0.0086,-0.0058,-0.0041,-0.0066,-0.0046,-0.0094,-0.0072,-0.0085,-0.0024,-0.0154,-0.0155,-0.0155,-0.0156,-0.0156,-0.0156,-0.0102,-0.0097,-0.0096,-0.0057,-0.0003,0.0019,0.0095,0.0066,0.0025,0.0036,0.0057,0.0056,-0.0035,0.004,0.004,0.004,0.0041,0.0041,0.0041,-0.0062,-0.006,-0.0027,0.0005,0.005,0.0128,0.0166,0.019,0.0182,0.0135,0.0135,-0.001,-0.0017,-0.0023,0.0047,0.0046,0.0045,0.0045,0.0044,-0.0027,-0.002,0.0032,0.0073,0.018,0.0295,0.0317,0.0377,0.0361,0.037,0.019,0.0185,0.0181,0.0171,0.0169,0.0285,0.0285,0.0285,0.0285,0.0012,0.0013,0.0105,0.0187,0.03,0.0384,0.0535,0.0546,0.0458,0.0377,0.0373,0.0329,0.0318,0.0318,0.0304,0.0303,0.0455,0.0455,0.0455,0.0056,0.0076,0.0155,0.0227,0.0356,0.0499,0.0649,0.0679,0.0536,0.046,0.038,0.0301,0.0222,0.021,0.0194,0.0178,0.017,0,0]}],[{"header":{"parameterUnit":"m.s-1","parameterCategory":2,"la1":30.2992,"la2":30.254,"lo1":-89.0895,"lo2":-89.0443,"dy":0.0025,"dx":0.0025,"nx":19,"ny":19,"refTime":"2026-04-02T03:00:00:Z","depth":"4","parameterNumber":2,"parameterNumberName":"U-component_of_CURRENTS"},"data":[0,0,0,0.0958,0.0961,0.1097,0.1097,0.122,0.1221,0,0,0,0,0,0,0,0,0,0,0,0.0917,0.0918,0.0958,0.0961,0.1097,0.1097,0.1219,0.1221,0,0,0,0,0,0,0,0,0,0,0,0.0916,0.0918,0.0919,0.0962,0.1097,0.1097,0.1219,0.1128,0,0,0,0,0,0,0,0,0,0,0.1003,0.0974,0.0917,0.0919,0.0963,0.1096,0.1097,0.1125,0.1134,0.1145,0,0.1181,0,0.1204,0.1228,0.1229,0,0,0,0.0956,0.0966,0.1003,0.0919,0.0964,0.1096,0.1034,0.113,0.1141,0.1158,0.1183,0.1188,0.1206,0.1229,0.1229,0.1345,0.1345,0,0,0.0949,0.0938,0.0996,0.1011,0.1018,0.103,0.1038,0.1137,0.1155,0.1183,0.1191,0.1208,0.123,0.1231,0.1344,0.1345,0,0,0,0.0931,0.0932,0.0968,0.1005,0.1034,0.1034,0.1044,0.115,0.1163,0.1192,0.1209,0.123,0.1232,0.1344,0.1345,0.1374,0,0,0,0.0926,0.0922,0.0965,0.0959,0.1033,0.1101,0.1054,0.1156,0.1168,0.1209,0.123,0.1233,0.1343,0.1344,0.1372,0.1364,0,0,0,0.0907,0.092,0.0941,0.0958,0.1019,0.11,0.1119,0.116,0.1179,0.1229,0.1233,0.1343,0.1344,0.137,0.1362,0.1406,0,0,0,0.0881,0.0918,0.0942,0.0988,0.1018,0.1088,0.1119,0.1189,0.1234,0.1231,0.1344,0.1345,0.137,0.1361,0.1405,0.1254,0,0,0,0.0904,0.0921,0.0944,0.0969,0.1034,0.1068,0.1142,0.1222,0.125,0.1305,0.1309,0.1372,0.1362,0.1406,0.1315,0,0,0,0,0.0936,0.0959,0.0982,0.1032,0.108,0.1143,0.1211,0.125,0.1334,0.1284,0.1385,0.1377,0.1404,0.1312,0.1349,0.1349,0.1349,0.1349,0.1349,0.0946,0.0974,0.102,0.107,0.112,0.1205,0.1255,0.1321,0.1352,0.1401,0.1411,0.1474,0.1378,0.1433,0.1433,0.1433,0.1433,0.1434,0.1434,0.097,0.0988,0.1045,0.1099,0.1164,0.1231,0.1326,0.1368,0.145,0.1453,0.148,0.136,0.1437,0.1436,0.1436,0.1435,0.1435,0.1435,0.1435,0.0955,0.0966,0.1014,0.1092,0.1173,0.1258,0.1329,0.1406,0.1471,0.1497,0.1432,0.1498,0.1485,0.1538,0.1539,0.1539,0.1539,0.1539,0.1539,0.0907,0.0955,0.0998,0.1084,0.1134,0.1217,0.1346,0.1395,0.1484,0.1438,0.1523,0.1509,0.1506,0.1492,0.1542,0.1542,0.1541,0.1541,0.1541,0.0878,0.0904,0.096,0.1008,0.1106,0.1146,0.1284,0.1354,0.1406,0.1406,0.141,0.1416,0.1391,0.1391,0.1372,0.1388,0.1387,0.1385,0,0.0846,0.0864,0.093,0.098,0.1024,0.1103,0.1135,0.1217,0.1294,0.1252,0.1408,0.141,0.1414,0.1383,0.138,0.1355,0,0,0,0.0831,0.0856,0.0884,0.0941,0.0979,0.1038,0.1137,0.1138,0.127,0.1285,0.1341,0.1352,0.1472,0.155,0.1527,0.1523,0.1499,0,0]},{"header":{"parameterUnit":"m.s-1","parameterCategory":2,"la1":30.2992,"la2":30.254,"lo1":-89.0895,"lo2":-89.0443,"dy":0.0025,"dx":0.0025,"nx":19,"ny":19,"refTime":"2026-04-02T03:00:00:Z","depth":"4","parameterNumber":3,"parameterNumberName":"V-component_of_CURRENTS"},"data":[0,0,0,-0.0037,-0.004,-0.0186,-0.0187,-0.0274,-0.0275,0,0,0,0,0,0,0,0,0,0,0,0.0017,0.0016,-0.0037,-0.0041,-0.0186,-0.0187,-0.0274,-0.0275,0,0,0,0,0,0,0,0,0,0,0,0.0017,0.0016,0.0015,-0.0041,-0.0186,-0.0187,-0.0274,-0.0188,0,0,0,0,0,0,0,0,0,0,-0.0058,-0.0018,0.0016,0.0014,-0.0042,-0.0186,-0.0187,-0.0185,-0.0193,-0.0181,0,-0.0211,0,-0.0246,-0.0279,-0.0279,0,0,0,-0.0037,-0.0011,-0.0058,0.0014,-0.0044,-0.0186,-0.012,-0.019,-0.02,-0.0192,-0.0212,-0.0217,-0.0248,-0.0279,-0.0279,-0.0315,-0.0315,0,0,-0.0029,-0.0,-0.0052,-0.0064,-0.0089,-0.0115,-0.0124,-0.0197,-0.0202,-0.0213,-0.0219,-0.0249,-0.028,-0.028,-0.0315,-0.0315,0,0,0,-0.0008,0.0006,-0.0041,-0.006,-0.0095,-0.0119,-0.013,-0.0199,-0.0218,-0.0221,-0.025,-0.028,-0.0281,-0.0315,-0.0315,-0.0288,0,0,0,-0.0003,0.0017,-0.0038,-0.002,-0.0095,-0.0162,-0.013,-0.0213,-0.0223,-0.025,-0.028,-0.0281,-0.0315,-0.0315,-0.0289,-0.0253,0,0,0,0.0025,0.002,-0.0001,-0.0019,-0.0085,-0.0162,-0.0185,-0.0216,-0.024,-0.0279,-0.0281,-0.0315,-0.0315,-0.0289,-0.0255,-0.0216,0,0,0,0.0066,0.0011,-0.0,-0.006,-0.0084,-0.0154,-0.0185,-0.0242,-0.0275,-0.028,-0.0315,-0.0315,-0.029,-0.0257,-0.0217,-0.0144,0,0,0,0.0016,0.0006,-0.0028,-0.0042,-0.0108,-0.0133,-0.0177,-0.0237,-0.0265,-0.0284,-0.0286,-0.0288,-0.0256,-0.0216,-0.0139,0,0,0,0,-0.0031,-0.0053,-0.0074,-0.0113,-0.0155,-0.0167,-0.0225,-0.0236,-0.0273,-0.0287,-0.0294,-0.0273,-0.0249,-0.0213,-0.0314,-0.0314,-0.0314,-0.0314,-0.0315,-0.0059,-0.0079,-0.0113,-0.0138,-0.0165,-0.0193,-0.0199,-0.022,-0.026,-0.0269,-0.0256,-0.0211,-0.0174,-0.0275,-0.0275,-0.0275,-0.0275,-0.0274,-0.0274,-0.0101,-0.0108,-0.0111,-0.0149,-0.0145,-0.0163,-0.0175,-0.0194,-0.0188,-0.0233,-0.0211,-0.0193,-0.0272,-0.0272,-0.0273,-0.0273,-0.0273,-0.0273,-0.0274,-0.0093,-0.0094,-0.0111,-0.0121,-0.0113,-0.0127,-0.0077,-0.011,-0.0148,-0.013,-0.009,-0.0178,-0.0173,-0.0129,-0.0128,-0.0128,-0.0128,-0.0128,-0.0127,-0.0067,-0.0082,-0.0073,-0.0084,-0.0067,-0.0036,-0.002,0.0001,-0.0044,-0.0028,-0.0119,-0.0162,-0.0166,-0.0164,-0.0122,-0.0123,-0.0124,-0.0124,-0.0125,-0.0058,-0.0049,-0.0033,-0.0016,0.0035,0.0067,0.0074,0.0118,0.0147,0.0149,0.003,0.0021,0.0028,0.0019,0.0028,0.0128,0.0129,0.013,0,-0.0028,-0.0031,0.0022,0.0069,0.0134,0.0137,0.022,0.0236,0.0186,0.0181,0.0119,-0.0018,-0.0024,-0.0022,-0.0027,-0.0019,0,0,0,-0.0003,0.0011,0.0063,0.0105,0.0178,0.0235,0.025,0.0269,0.0183,0.0241,0.0159,0.0152,0.0007,-0.0108,-0.0118,-0.0124,-0.012,0,0]}]]